Location: Paddlesworth
(51.1000°N, 1.1333°E)
Time: 09:52:09
(UTC+00:00)

STARLINK-1521 - Visible Passes

Search period start: 01 December 2021 00:00
Search period end: 11 December 2021 00:00
Orbit: 546 x 548 km, 53.1° (Epoch: 30 November)

Date Brightness Start Highest point End Pass type
(mag) Time Alt. Az. Time Alt. Az. Time Alt. Az.
01 Dec 5.3 04:30:34 30° SE 04:30:34 30° SE 04:32:45 10° ESE visible
01 Dec 5.4 06:06:11 16° WSW 06:07:37 18° SW 06:10:30 10° S visible
02 Dec 5.7 04:24:49 22° SE 04:24:49 22° SE 04:26:22 10° SE visible
02 Dec 5.5 06:00:26 14° WSW 06:01:10 15° SW 06:03:28 10° SSW visible
03 Dec 6.2 04:19:07 15° SE 04:19:07 15° SE 04:19:56 10° SE visible
03 Dec 5.8 05:54:45 11° SW 05:54:45 11° SW 05:56:02 10° SSW visible
